Regional Weather Roundup
Issued by NWS

Home | Current Version | Previous Version | Text Only | Print | Product List | Glossary Off
Versions: 1 2 3 4 5 6 7 8 9 10 11 12 13 14 15 16 17 18 19 20 21 22 23 24 25 26 27 28 29 30 31 32 33 34 35 36 37 38 39 40 41 42 43 44 45 46 47 48 49 50

000
ASUS43 KIND 231559
RWRIN

WEATHER ROUNDUP FOR INDIANA
NATIONAL WEATHER SERVICE INDIANAPOLIS IN
1200 PM EDT MON APR 23 2018

NOTE: "FAIR" INDICATES FEW OR NO CLOUDS BELOW 12,000 FEET WITH NO
SIGNIFICANT WEATHER AND/OR OBSTRUCTIONS TO VISIBILITY.

* - STATION DOES NOT REPORT WEATHER SUCH AS PRECIPITATION OR FOG.

+ - STATION NOT QUALITY CONTROLLED BY THE NATIONAL WEATHER SERVICE.
    USE DATA WITH CAUTION...ESPECIALLY DEWPOINT AND RELATIVE
    HUMIDITY OBSERVATIONS.

INZ001>003-010>013-019-020-231700-
NORTHWEST INDIANA

CITY           SKY/WX    TMP DP  RH WIND       PRES   REMARKS
GARY /AIRPORT/ PTSUNNY   48  32  53 N10       30.17F
KNOX *+        FAIR      61  34  36 E8        30.15S
MONTICELLO +   CLOUDY    57  34  42 E6        30.12S

$$

LMZ046-743>745-231700-
SOUTHERN LAKE MICHIGAN

STATION/POSITION TIME  TEMP    WIND        PRES    WAVE
                       AIR SEA DIR/SP/G            HT
                 (UTC) (F)     (DEG/KT/KT) (MB)    (FT)
BURNS HARBOR     1501   43      40/  6/  8 1022.4
MICHIGAN CITY    1530   41      20/  7/  8   N/A

$$

INZ004-005-014>016-021>024-231700-
NORTH CENTRAL INDIANA

CITY           SKY/WX    TMP DP  RH WIND       PRES   REMARKS
ELKHART        FAIR      63  36  36 E6        30.18S
GOSHEN         FAIR      63  40  42 E7        30.16F
ROCHESTER +    FAIR      63  37  39 E9        30.15S
SOUTH BEND     FAIR      59  33  37 E9        30.18F
WARSAW +       FAIR      63  39  42 SE7       30.15F

$$

INZ006>009-017-018-025>027-231700-
NORTHEAST INDIANA

CITY           SKY/WX    TMP DP  RH WIND       PRES   REMARKS
FORT WAYNE     PTSUNNY   64  43  46 E10       30.15F

$$

INZ028-029-035-036-043>045-051>053-231700-
WEST CENTRAL INDIANA

CITY           SKY/WX    TMP DP  RH WIND       PRES   REMARKS
LAFAYETTE      CLOUDY    56  39  53 E10       30.11S
TERRE HAUTE    LGT RAIN  51  50  96 E12       30.08S FOG

$$

INZ030>032-037>040-046>048-054>057-064-065-231700-
CENTRAL INDIANA

CITY           SKY/WX    TMP DP  RH WIND       PRES   REMARKS
ANDERSON       MOSUNNY   63  43  48 SE12      30.12S
COLUMBUS       LGT RAIN  52 N/A N/A E10       30.11S FOG
GREENWOOD *+   CLOUDY    52  48  87 SE7       30.11F
INDIANAPOLIS   LGT RAIN  55  49  80 SE15      30.11R
-EAGLE CREEK   LGT RAIN  56  48  74 E9        30.11R
KOKOMO +       PTSUNNY   59  40  49 E12       30.13S
MT COMFORT *+  CLOUDY    54  50  87 SE8       30.12S
SHELBYVILLE    RAIN      54  48  80 E12       30.11S
ZIONSVILLE +   LGT RAIN  56  40  55 SE9       30.12S

$$

INZ033-034-041-042-049-050-058-059-231700-
EAST CENTRAL INDIANA

CITY           SKY/WX    TMP DP  RH WIND       PRES   REMARKS
MUNCIE         FAIR      64  43  46 SE10      30.12S
RICHMOND +     CLOUDY    59  45  58 SE13G21   30.14R

$$

INZ060-061-067>069-081>083-085>088-231700-
SOUTHWEST INDIANA

CITY           SKY/WX    TMP DP  RH WIND       PRES   REMARKS
EVANSVILLE     CLOUDY    60  55  83 E13       29.98R
HUNTINGBURG +  CLOUDY    60  54  80 E16G22    30.00S

$$

INZ062-063-066-070>080-084-089>092-231700-
SOUTH CENTRAL AND SOUTHEAST INDIANA

CITY           SKY/WX    TMP DP  RH WIND       PRES   REMARKS
BLOOMINGTON    LGT RAIN  53  51  93 SE10      30.07F FOG
SEYMOUR +      LGT RAIN  54  52  94 E10       30.08S

$$





USA.gov is the U.S. government's official web portal to all federal, state and local government web resources and services.